Weather History for Pampa / Mesa Vista, TX

Change the Weather History Date:

Monday, March 10, 2014

  Actual Average (KBGD) Record (KBGD)
Temperature  
Mean Temperature 58 °F 48 °F  
Max Temperature 80 °F 61 °F 91 °F (1989)
Min Temperature 35 °F 35 °F 15 °F (1998)
Degree Days  
Heating Degree Days 8 17  
Month to date heating degree days 187  
Since 1 July heating degree days 3180  
Cooling Degree Days 0 0  
Month to date cooling degree days 0  
Year to date cooling degree days 0  
Growing Degree Days 8 (Base 50)    
Moisture  
Dew Point 14 °F    
Average Humidity 23    
Maximum Humidity 52    
Minimum Humidity 6    
Precipitation  
Precipitation 0.00 in 0.04 in 1.90 in (1973)
Month to date precipitation 0.42  
Year to date precipitation 1.63  
Snow  
Snow 0.00 in - 2.00 in (1968)
Month to date snowfall  
Since 1 July snowfall  
Snow Depth -    
Sea Level Pressure  
Sea Level Pressure 29.89 in    
Wind  
Wind Speed 9 mph (SW)    
Max Wind Speed 13 mph    
Max Gust Speed 21 mph    
Visibility 10 miles    
Events      
T = Trace of Precipitation, MM = Missing Value Source: NWS Daily Summary

Daily Weather History Graph

Daily Weather History Graph

Search for Another Location

Airport:

Trip Planner

Search our weather history database for the weather conditions in past years. The results will help you decide how hot, cold, wet, or windy it might be!

Date:

Astronomy

Mar. 10, 2014 Rise Set
Actual Time 8:01 AM CDT 7:47 PM CDT
Civil Twilight 7:36 AM CDT 8:12 PM CDT
Nautical Twilight 7:06 AM CDT 8:42 PM CDT
Astronomical Twilight 6:36 AM CDT 9:12 PM CDT
Moon 2:40 PM CDT (3/10) 4:07 AM CDT (3/10)
Length of Visible Light 12h 36m
Length of Day
11h 45m
Waxing Gibbous, 70% of the Moon is Illuminated
Mar 10
Waxing Gibbous
Mar 16
Full
Mar 23
Last Quarter
Mar 30
New
Apr 7
First Quarter

Hourly Weather History & Observations

Time (CDT) Temp. Windchill Dew Point Humidity Pressure Visibility Wind Dir Wind Speed Gust Speed Precip Events Conditions
12:15 AM 42.8 °F 38.0 °F 15.8 °F 34% 30.06 in 10.0 mi WSW 8.1 mph - N/A   Clear
12:35 AM 44.6 °F 39.7 °F 15.8 °F 31% 30.05 in 10.0 mi SW 9.2 mph - N/A   Clear
12:55 AM 41.0 °F 36.4 °F 15.8 °F 36% 30.05 in 10.0 mi WSW 6.9 mph - N/A   Clear
1:15 AM 41.0 °F 36.4 °F 14.0 °F 33% 30.05 in 10.0 mi SW 6.9 mph - N/A   Clear
1:35 AM 39.2 °F 33.6 °F 14.0 °F 36% 30.05 in 10.0 mi SW 8.1 mph - N/A   Clear
1:55 AM 39.2 °F 33.6 °F 14.0 °F 36% 30.05 in 10.0 mi SW 8.1 mph - N/A   Clear
2:15 AM 41.0 °F 35.2 °F 15.8 °F 36% 30.05 in 10.0 mi SW 9.2 mph - N/A   Clear
2:35 AM 39.2 °F 33.0 °F 14.0 °F 36% 30.05 in 10.0 mi SSW 9.2 mph - N/A   Clear
2:55 AM 41.0 °F 35.2 °F 14.0 °F 33% 30.05 in 10.0 mi SSW 9.2 mph - N/A   Clear
3:15 AM 42.8 °F 36.6 °F 14.0 °F 31% 30.05 in 10.0 mi SW 11.5 mph - N/A   Clear
3:35 AM 41.0 °F 34.3 °F 14.0 °F 33% 30.04 in 10.0 mi SW 11.5 mph - N/A   Clear
3:55 AM 41.0 °F 34.3 °F 14.0 °F 33% 30.03 in 10.0 mi SW 11.5 mph - N/A   Clear
4:15 AM 41.0 °F 35.2 °F 14.0 °F 33% 30.03 in 10.0 mi WSW 9.2 mph - N/A   Clear
4:35 AM 37.4 °F 31.4 °F 14.0 °F 38% 30.01 in 10.0 mi WSW 8.1 mph - N/A   Clear
4:55 AM 39.2 °F 33.6 °F 15.8 °F 39% 30.01 in 10.0 mi WSW 8.1 mph - N/A   Clear
5:15 AM 41.0 °F 34.3 °F 17.6 °F 39% 30.00 in 10.0 mi SW 11.5 mph - N/A   Clear
5:35 AM 42.8 °F 36.2 °F 17.6 °F 36% 30.00 in 10.0 mi SW 12.7 mph - N/A   Clear
5:55 AM 42.8 °F 37.0 °F 17.6 °F 36% 30.00 in 10.0 mi WSW 10.4 mph - N/A   Clear
6:15 AM 42.8 °F 37.0 °F 17.6 °F 36% 30.00 in 10.0 mi SW 10.4 mph - N/A   Clear
6:35 AM 41.0 °F 35.8 °F 17.6 °F 39% 30.00 in 10.0 mi SW 8.1 mph - N/A   Clear
6:55 AM 39.2 °F 35.9 °F 19.4 °F 45% 30.00 in 10.0 mi SW 4.6 mph - N/A   Clear
7:15 AM 37.4 °F 32.8 °F 19.4 °F 48% 30.00 in 10.0 mi SW 5.8 mph - N/A   Clear
7:35 AM 35.6 °F - 19.4 °F 52% 29.99 in 10.0 mi Calm Calm - N/A   Clear
7:55 AM 37.4 °F 31.4 °F 19.4 °F 48% 29.99 in 10.0 mi SW 8.1 mph - N/A   Clear
8:15 AM 39.2 °F 35.0 °F 19.4 °F 45% 29.99 in 10.0 mi WSW 5.8 mph - N/A   Clear
8:35 AM 41.0 °F 37.1 °F 19.4 °F 42% 30.00 in 10.0 mi WSW 5.8 mph - N/A   Clear
8:55 AM 41.0 °F 38.0 °F 21.2 °F 45% 30.00 in 10.0 mi West 4.6 mph - N/A   Clear
9:15 AM 42.8 °F 38.0 °F 19.4 °F 39% 30.00 in 10.0 mi WSW 8.1 mph - N/A   Clear
9:35 AM 44.6 °F 39.2 °F 19.4 °F 37% 30.00 in 10.0 mi WSW 10.4 mph - N/A   Clear
9:55 AM 46.4 °F 41.1 °F 21.2 °F 37% 29.99 in 10.0 mi WSW 11.5 mph - N/A   Clear
10:15 AM 50.0 °F - 21.2 °F 32% 29.99 in 10.0 mi WSW 11.5 mph - N/A   Clear
10:35 AM 51.8 °F - 21.2 °F 30% 29.98 in 10.0 mi WSW 9.2 mph - N/A   Clear
10:55 AM 55.4 °F - 21.2 °F 26% 29.97 in 10.0 mi WSW 11.5 mph - N/A   Clear
11:15 AM 59.0 °F - 21.2 °F 23% 29.97 in 10.0 mi WSW 9.2 mph - N/A   Clear
11:35 AM 60.8 °F - 21.2 °F 22% 29.96 in 10.0 mi WSW 9.2 mph - N/A   Clear
11:55 AM 62.6 °F - 19.4 °F 19% 29.95 in 10.0 mi WSW 6.9 mph - N/A   Clear
12:15 PM 66.2 °F - 19.4 °F 17% 29.94 in 10.0 mi SW 6.9 mph - N/A   Clear
12:35 PM 68.0 °F - 19.4 °F 16% 29.93 in 10.0 mi SW 8.1 mph - N/A   Clear
12:55 PM 71.6 °F - 19.4 °F 14% 29.92 in 10.0 mi WSW 5.8 mph - N/A   Clear
1:15 PM 73.4 °F - 19.4 °F 13% 29.91 in 10.0 mi SW 8.1 mph - N/A   Clear
1:35 PM 75.2 °F - 17.6 °F 11% 29.90 in 10.0 mi SSW 9.2 mph - N/A   Clear
1:55 PM 77.0 °F - 14.0 °F 9% 29.88 in 10.0 mi SSW 9.2 mph - N/A   Clear
2:15 PM 77.0 °F - 10.4 °F 8% 29.87 in 10.0 mi SW 12.7 mph 17.3 mph N/A   Clear
2:35 PM 78.8 °F - 10.4 °F 7% 29.85 in 10.0 mi SW 8.1 mph 17.3 mph N/A   Clear
2:55 PM 78.8 °F - 12.2 °F 8% 29.84 in 10.0 mi SW 10.4 mph 18.4 mph N/A   Clear
3:15 PM 78.8 °F - 10.4 °F 7% 29.82 in 10.0 mi SW 10.4 mph 20.7 mph N/A   Clear
3:35 PM 80.6 °F - 10.4 °F 7% 29.81 in 10.0 mi SW 10.4 mph 18.4 mph N/A   Clear
3:55 PM 80.6 °F - 12.2 °F 8% 29.80 in 10.0 mi SW 10.4 mph 18.4 mph N/A   Clear
4:15 PM 80.6 °F - 10.4 °F 7% 29.79 in 10.0 mi SSW 10.4 mph 17.3 mph N/A   Clear
4:35 PM 80.6 °F - 8.6 °F 6% 29.78 in 10.0 mi SW 11.5 mph - N/A   Clear
4:55 PM 80.6 °F - 8.6 °F 6% 29.77 in 10.0 mi SSW 11.5 mph - N/A   Clear
5:15 PM 80.6 °F - 8.6 °F 6% 29.76 in 10.0 mi South 10.4 mph - N/A   Clear
5:35 PM 80.6 °F - 6.8 °F 6% 29.76 in 10.0 mi SW 11.5 mph 17.3 mph N/A   Clear
5:55 PM 80.6 °F - 5.0 °F 6% 29.75 in 10.0 mi SSW 11.5 mph - N/A   Clear
6:15 PM 80.6 °F - 6.8 °F 6% 29.74 in 10.0 mi SW 9.2 mph - N/A   Clear
6:35 PM 80.6 °F - 5.0 °F 6% 29.74 in 10.0 mi South 12.7 mph - N/A   Clear
6:55 PM 78.8 °F - 6.8 °F 6% 29.73 in 10.0 mi SSW 10.4 mph - N/A   Clear
7:15 PM 77.0 °F - 6.8 °F 7% 29.73 in 10.0 mi SSW 9.2 mph - N/A   Clear
7:35 PM 71.6 °F - 8.6 °F 9% 29.73 in 10.0 mi South 9.2 mph - N/A   Clear
7:55 PM 62.6 °F - 10.4 °F 13% 29.73 in 10.0 mi South 10.4 mph - N/A   Clear
8:15 PM 60.8 °F - 10.4 °F 14% 29.73 in 10.0 mi South 12.7 mph - N/A   Clear
8:35 PM 60.8 °F - 8.6 °F 13% 29.73 in 10.0 mi South 12.7 mph - N/A   Clear
8:55 PM 60.8 °F - 8.6 °F 13% 29.72 in 10.0 mi South 12.7 mph - N/A   Clear
9:15 PM 59.0 °F - 8.6 °F 14% 29.73 in 10.0 mi South 12.7 mph - N/A   Clear
9:35 PM 57.2 °F - 10.4 °F 16% 29.72 in 10.0 mi South 12.7 mph - N/A   Clear
9:55 PM 57.2 °F - 10.4 °F 16% 29.72 in 10.0 mi South 12.7 mph - N/A   Clear
10:15 PM 57.2 °F - 8.6 °F 14% 29.71 in 10.0 mi South 10.4 mph - N/A   Clear
10:35 PM 53.6 °F - 8.6 °F 16% 29.71 in 10.0 mi South 10.4 mph - N/A   Clear
10:55 PM 55.4 °F - 8.6 °F 15% 29.70 in 10.0 mi South 10.4 mph - N/A   Clear
11:15 PM 53.6 °F - 8.6 °F 16% 29.69 in 10.0 mi South 8.1 mph - N/A   Clear
11:35 PM 53.6 °F - 8.6 °F 16% 29.69 in 10.0 mi SSW 8.1 mph - N/A   Clear
11:55 PM 51.8 °F - 8.6 °F 18% 29.69 in 10.0 mi WSW 4.6 mph - N/A   Clear